カタログに戻る

EKRAN 10

運用中通信GEO
NORAD 13878·PAYLOAD·🇷🇺 Russia

打ち上げ Mar 12, 1983 から Baikonur Cosmodrome

Loading…

TLE

最新Source: Space-Track

元期: Sep 14, 2026, 13:25 UTC

1 13878U 83016A   26257.55928417 -.00000100  00000-0  00000-0 0  9990
2 13878  10.2262 309.8690 0031098  26.0544 138.7486  0.95030392120022

AllMySatでEKRAN 10をリアルタイム追跡

Download on the App Store